Location: Saratoga Springs
(43.0831°N, 73.7850°W)
Time: 03:48:25
(UTC-04:00)

Vanguard 1 Rocket - Pass Details

Date: 16 April 2024
Orbit: 651 x 4220 km, 34.3° (Epoch: 17 May)

Event Time Altitude Azimuth Distance (km) Brightness Sun altitude
Rises 19:24:32 0° 216° (SW) 3,105 10.5 1.8°
Reaches altitude 10° 19:27:00 10° 201° (SSW) 2,364 9.7 1.4°
Maximum altitude 19:31:17 24° 148° (SSE) 1,971 8.8 0.6°
Drops below altitude 10° 19:37:31 10° 98° (E) 3,557 9.8 -0.5°
Sets 19:42:15 0° 87° (E) 5,165 10.6 -1.3°
